sat.trackr.live / text

‹ back to catalog

STARLINK-35216

NORAD 65516 · 2025-198AA

PAYLOAD ACTIVE UNKNOWN

§ Identity

Operator
Country
US
Launch date
2025-09-05
Launch site
AFETR
Launch vehicle
Mass (kg)
RCS (m²)

Purposes: comms

External: N2YO · Heavens-Above · Gunter

§ Orbital elements

Epoch: 2026-09-20T21:43:51.149568Z

Period
93.85 min
Inclination
53.1592°
Eccentricity
0.0000860
Mean motion
15.34403578 rev/d
Perigee alt
462.1 km
Apogee alt
463.3 km
Semi-major
6,840.8 km
B*
4.6933e-4
RAAN
81.7430°
Arg perigee
67.2245°
Mean anomaly
292.8848°
Rev number
5,854

§ Raw data

STARLINK-352161 65516U 25198AA  26263.90545312  .00015516  00000+0  46933-3 0  99912 65516  53.1592  81.7430 0000860  67.2245 292.8848 15.34403578 58546

JSON: /api/v1/satellites/65516 · /tle

For live sub-satellite position, see the globe view (requires WebGL).

§ Visibility from observer

Set your observer location to see the next 7 days of passes ≥ 10°. The values pass through the URL so the page stays shareable.

No JS? Fill the form by hand. The geolocation button needs JavaScript.